[[{"header":{"parameterUnit":"m.s-1","parameterCategory":1,"la1":30.2991,"la2":30.254,"lo1":-89.0895,"lo2":-89.0444,"dy":0.0017,"dx":0.0017,"nx":28,"ny":28,"refTime":"2023-08-12T21:00:00:Z","depth":0,"parameterNumber":2,"parameterNumberName":"U-component_of_WINDS"},"data":[0,0,0,0,0,0,0,0,0,0,0,0,0,0,0,0,0,0,0,0,0,0,0,0,0,0,0,0,0,0,0,0,0,0,0,0,0,0,0,0,0,0,0,0,0,0,0,0,0,0,0,0,0,0,0,0,0,0,1.3657,1.3659,0,1.3778,1.378,1.3781,1.3857,1.3858,1.3858,1.3859,1.3987,1.399,1.3993,0,0,0,0,0,0,0,0,0,0,0,0,0,1.3496,1.3499,1.3657,1.3659,1.366,1.3778,1.378,1.3781,1.3857,1.3858,1.3858,1.3859,1.3986,1.399,1.3993,0,0,0,0,0,0,0,0,0,0,0,0,0,1.3587,1.35,1.3657,1.3712,1.3718,1.3778,1.378,1.3782,1.3857,1.3858,1.3858,1.3859,1.3985,1.3989,1.3994,1.401,0,0,1.4008,1.401,0,0,0,0,0,0,0,0,1.3582,1.3593,1.3702,1.3708,1.3715,1.3803,1.377,1.3858,1.3857,1.3805,1.3859,1.3859,1.3926,1.3935,1.3957,1.4016,1.4021,1.4008,1.4011,1.4013,1.4014,0,0,0,0,0,0,0,1.3575,1.3588,1.3705,1.3704,1.3712,1.3733,1.3746,1.3787,1.386,1.3809,1.3815,1.3828,1.393,1.3952,1.396,1.4023,1.4008,1.4012,1.4015,1.4017,1.4103,1.4102,0,0,0,0,0,0,1.356,1.3582,1.3701,1.3709,1.3648,1.3735,1.375,1.3775,1.386,1.3874,1.3827,1.3831,1.3944,1.3955,1.3965,1.399,1.4013,1.4017,1.402,1.4103,1.4102,1.4102,0,0,0,0,0,0,1.3556,1.3569,1.3697,1.3647,1.3665,1.3737,1.3764,1.3777,1.3799,1.3874,1.3888,1.3837,1.3945,1.3959,1.3998,1.3995,1.4019,1.4023,1.4104,1.4103,1.4102,1.4038,0,0,0,0,0,0,1.3551,1.3568,1.3573,1.3647,1.3667,1.3725,1.3764,1.3778,1.3806,1.3812,1.3886,1.3899,1.3947,1.3991,1.4002,1.4002,1.4027,1.4104,1.4103,1.4102,1.4041,1.4036,1.4031,0,0,0,0,0,1.3545,1.3551,1.3573,1.3587,1.3675,1.3725,1.3737,1.379,1.3806,1.3813,1.3861,1.3897,1.3994,1.3994,1.4008,1.4009,1.4105,1.4103,1.4103,1.4043,1.4037,1.4031,0,0,0,0,0,0,1.3476,1.3561,1.3587,1.3616,1.3663,1.3738,1.3748,1.3781,1.3825,1.3829,1.3895,1.3911,1.3944,1.3981,1.3979,1.4029,1.4054,1.4055,1.4004,1.3998,1.3993,1.3984,1.4031,0,0,0,0,0,1.3464,1.3496,1.357,1.3589,1.3611,1.3675,1.3699,1.3736,1.3787,1.3807,1.3858,1.3908,1.395,1.3976,1.4019,1.4047,1.4065,1.4055,1.405,1.4045,1.4046,1.4065,1.4062,1.4099,1.4099,1.4099,0,0,1.344,1.3491,1.3507,1.3576,1.3617,1.365,1.3691,1.3724,1.375,1.3813,1.3853,1.3892,1.3952,1.3986,1.4004,1.4018,1.404,1.4044,1.404,1.4043,1.4064,1.406,1.4057,1.4098,1.4098,1.4098,0,0,1.3414,1.3454,1.3475,1.3515,1.3575,1.3618,1.3623,1.3693,1.3721,1.3762,1.381,1.3843,1.3913,1.3954,1.3984,1.3974,1.401,1.3987,1.396,1.3978,1.3975,1.3973,1.397,1.3968,1.3987,1.3987,1.3987,0,1.3377,1.3427,1.3482,1.3513,1.3542,1.36,1.3622,1.3659,1.373,1.375,1.3764,1.3855,1.3899,1.3944,1.3941,1.3964,1.3973,1.3978,1.3971,1.3969,1.3968,1.3966,1.3965,1.3984,1.3984,1.3985,1.3985,0,1.3379,1.3413,1.3423,1.3489,1.352,1.3547,1.3608,1.3633,1.3667,1.3709,1.3751,1.3807,1.3862,1.3875,1.391,1.3926,1.3933,1.3958,1.3984,1.396,1.396,1.3959,1.3979,1.3981,1.3981,1.3982,0,0,1.3312,1.3408,1.3411,1.3442,1.3513,1.3542,1.3572,1.3624,1.3645,1.3693,1.3721,1.3779,1.3803,1.3838,1.3878,1.3893,1.3883,1.3917,1.392,1.3909,1.3905,1.3885,1.3883,1.3907,1.3907,1.3907,1.39,0,1.3296,1.335,1.3402,1.3438,1.3472,1.3527,1.3554,1.3601,1.3642,1.3677,1.3723,1.3763,1.3792,1.3813,1.3831,1.388,1.3883,1.3881,1.3935,1.3936,1.3917,1.3883,1.3862,1.3852,1.39,1.39,1.39,0,1.3284,1.3328,1.3368,1.3436,1.3452,1.3475,1.3528,1.3561,1.3616,1.3645,1.3683,1.3725,1.3761,1.3783,1.3835,1.3833,1.3858,1.3886,1.3887,1.3894,1.3916,1.3889,1.3851,1.3849,1.39,1.39,1.39,0,1.3232,1.3301,1.3334,1.3359,1.344,1.3454,1.3489,1.3545,1.3574,1.3621,1.3641,1.3692,1.372,1.376,1.3815,1.3826,1.3862,1.3888,1.3888,1.3886,1.3892,1.3891,1.3857,1.3908,1.3908,1.3908,1.3908,0,1.3209,1.3231,1.3312,1.3332,1.3359,1.3419,1.3445,1.3485,1.3534,1.3565,1.3617,1.3645,1.3716,1.3753,1.3797,1.3834,1.3846,1.3871,1.3883,1.3867,1.3863,1.3884,1.3886,1.3908,1.3908,1.3908,1.3908,0,1.3154,1.3209,1.3249,1.3322,1.3341,1.3358,1.3421,1.3444,1.3488,1.3525,1.3538,1.3607,1.3653,1.3712,1.3778,1.3808,1.384,1.3857,1.382,1.3827,1.3823,1.3823,1.3802,1.3802,1.3851,1.3851,1.385,0,1.3136,1.3154,1.3229,1.3252,1.3285,1.3322,1.3351,1.3412,1.3441,1.3506,1.3521,1.3571,1.3614,1.3686,1.3743,1.3794,1.3813,1.3802,1.3821,1.3805,1.3814,1.3812,1.3814,1.3797,1.3797,1.3796,1.3795,0,1.3098,1.3124,1.3163,1.3213,1.3246,1.3288,1.3333,1.3349,1.342,1.345,1.3497,1.353,1.3596,1.3646,1.3704,1.3742,1.3781,1.3789,1.3792,1.3775,1.3753,1.3765,1.3807,1.3789,1.379,1.379,1.379,1.3791,1.3061,1.308,1.3136,1.3179,1.3218,1.3259,1.3284,1.3331,1.337,1.3428,1.3462,1.3508,1.3565,1.3647,1.3684,1.3722,1.3737,1.374,1.3741,1.3741,1.3736,1.3747,1.3733,1.3733,1.3733,1.3734,1.3734,0,1.3026,1.3065,1.3103,1.3163,1.3197,1.3229,1.3281,1.3308,1.3347,1.3396,1.3437,1.3492,1.3541,1.3602,1.3655,1.3674,1.3693,1.3686,1.3685,1.3693,1.372,1.3712,1.3669,1.3669,1.3669,1.3669,1.3669,1.3669,1.3012,1.3046,1.3079,1.3134,1.3173,1.3218,1.3244,1.3283,1.3322,1.3381,1.342,1.3459,1.3514,1.3572,1.3618,1.3635,1.3653,1.364,1.3662,1.3686,1.3692,1.3697,1.369,1.3643,1.3643,1.3633,1.3633,1.3632]},{"header":{"parameterUnit":"m.s-1","parameterCategory":1,"la1":30.2991,"la2":30.254,"lo1":-89.0895,"lo2":-89.0444,"dy":0.0017,"dx":0.0017,"nx":28,"ny":28,"refTime":"2023-08-12T21:00:00:Z","depth":0,"parameterNumber":3,"parameterNumberName":"V-component_of_WINDS"},"data":[0,0,0,0,0,0,0,0,0,0,0,0,0,0,0,0,0,0,0,0,0,0,0,0,0,0,0,0,0,0,0,0,0,0,0,0,0,0,0,0,0,0,0,0,0,0,0,0,0,0,0,0,0,0,0,0,0,0,1.7578,1.7578,0,1.7599,1.76,1.76,1.7614,1.7615,1.7615,1.7615,1.7633,1.7633,1.7633,0,0,0,0,0,0,0,0,0,0,0,0,0,1.7544,1.7544,1.7578,1.7578,1.7579,1.7599,1.76,1.76,1.7614,1.7615,1.7615,1.7615,1.7632,1.7633,1.7633,0,0,0,0,0,0,0,0,0,0,0,0,0,1.7561,1.7545,1.7578,1.7589,1.759,1.7599,1.76,1.76,1.7614,1.7615,1.7615,1.7615,1.7632,1.7633,1.7633,1.7633,0,0,1.7635,1.7635,0,0,0,0,0,0,0,0,1.756,1.7562,1.7587,1.7588,1.7589,1.7605,1.7594,1.7611,1.7614,1.7605,1.7615,1.7615,1.7623,1.7624,1.7628,1.7634,1.7635,1.7635,1.7635,1.7636,1.7636,0,0,0,0,0,0,0,1.7559,1.7562,1.7586,1.7587,1.7588,1.759,1.7593,1.7597,1.7612,1.7606,1.7607,1.7609,1.7623,1.7627,1.7628,1.7635,1.7635,1.7635,1.7636,1.7636,1.7637,1.7637,0,0,0,0,0,0,1.7557,1.756,1.7586,1.7587,1.7575,1.759,1.7593,1.7599,1.7612,1.7615,1.7609,1.761,1.7626,1.7627,1.7629,1.7627,1.7636,1.7636,1.7636,1.7638,1.7637,1.7637,0,0,0,0,0,0,1.7556,1.7559,1.7585,1.7574,1.7577,1.7591,1.7597,1.76,1.7603,1.7615,1.7617,1.761,1.7626,1.7628,1.7631,1.7628,1.7636,1.7637,1.7638,1.7637,1.7637,1.7624,0,0,0,0,0,0,1.7555,1.7559,1.7561,1.7574,1.7578,1.7589,1.7597,1.76,1.7605,1.7606,1.7617,1.7619,1.7626,1.763,1.7632,1.7628,1.7637,1.7638,1.7638,1.7637,1.7625,1.7623,1.7622,0,0,0,0,0,1.7554,1.7556,1.7561,1.7564,1.7581,1.7589,1.7591,1.7601,1.7604,1.7605,1.7612,1.7619,1.7628,1.763,1.7632,1.7629,1.7638,1.7638,1.7637,1.7625,1.7623,1.7622,0,0,0,0,0,0,1.7542,1.7558,1.7563,1.7571,1.7578,1.7591,1.7593,1.7599,1.7605,1.7606,1.7616,1.7618,1.762,1.7625,1.7627,1.7627,1.7634,1.7633,1.7624,1.7622,1.7621,1.7619,1.7638,0,0,0,0,0,1.754,1.7546,1.756,1.7565,1.7568,1.758,1.7584,1.759,1.7598,1.7601,1.7608,1.7614,1.7618,1.7621,1.7625,1.7625,1.7626,1.7624,1.7622,1.7621,1.762,1.7617,1.7615,1.7635,1.7635,1.7635,0,0,1.7536,1.7546,1.7549,1.7562,1.7569,1.7573,1.7582,1.7588,1.759,1.7601,1.7605,1.761,1.7617,1.7617,1.7618,1.7622,1.7615,1.762,1.7619,1.7619,1.7616,1.7614,1.7612,1.7634,1.7634,1.7634,0,0,1.7531,1.754,1.7544,1.755,1.756,1.7567,1.7567,1.7579,1.7583,1.7586,1.7594,1.7596,1.7603,1.7607,1.761,1.7602,1.7607,1.7603,1.7594,1.7591,1.759,1.7588,1.7583,1.7581,1.7602,1.7602,1.7602,0,1.7525,1.7534,1.7545,1.7548,1.7552,1.7563,1.7565,1.7569,1.758,1.7581,1.7585,1.7592,1.7598,1.7598,1.7595,1.7598,1.7597,1.7602,1.7589,1.7588,1.7587,1.7582,1.758,1.7601,1.7601,1.7601,1.7601,0,1.7524,1.7529,1.7531,1.754,1.7544,1.7547,1.7556,1.7558,1.7563,1.7569,1.757,1.7577,1.7581,1.7581,1.7587,1.7581,1.7582,1.7588,1.7594,1.7584,1.7579,1.7577,1.76,1.76,1.7601,1.7601,0,0,1.7515,1.7528,1.7528,1.7531,1.7541,1.7544,1.7545,1.755,1.755,1.7556,1.7556,1.756,1.7563,1.7566,1.7572,1.7569,1.7558,1.7574,1.7574,1.7569,1.7548,1.7544,1.7541,1.7562,1.7562,1.7561,1.7547,0,1.751,1.7515,1.7523,1.7524,1.7527,1.7535,1.7536,1.754,1.7544,1.7546,1.755,1.7551,1.7558,1.7559,1.7557,1.756,1.7554,1.7562,1.7559,1.7559,1.7556,1.7539,1.7535,1.7521,1.7546,1.7545,1.7545,0,1.7506,1.7511,1.7512,1.7519,1.752,1.7521,1.7524,1.7526,1.7529,1.7532,1.7534,1.7539,1.7538,1.7544,1.754,1.7545,1.7544,1.7545,1.7544,1.7544,1.7551,1.7536,1.7518,1.7515,1.7543,1.7543,1.7543,0,1.7496,1.7503,1.7504,1.7506,1.7514,1.7514,1.7517,1.7521,1.7522,1.7523,1.7523,1.7525,1.7525,1.7524,1.7528,1.7533,1.7523,1.753,1.7523,1.7523,1.752,1.752,1.7499,1.7522,1.7522,1.7522,1.7522,0,1.749,1.749,1.7499,1.75,1.7498,1.7506,1.7504,1.7507,1.751,1.7509,1.7515,1.7514,1.752,1.7518,1.7521,1.7516,1.7516,1.7516,1.7517,1.7515,1.7515,1.7514,1.7514,1.7521,1.7522,1.7522,1.7522,0,1.7479,1.7486,1.7487,1.7493,1.7494,1.7493,1.7497,1.7496,1.7499,1.7498,1.7498,1.7502,1.75,1.7504,1.7503,1.7504,1.7496,1.7499,1.7495,1.7495,1.7487,1.7487,1.7464,1.746,1.7486,1.7486,1.7486,0,1.7475,1.7475,1.748,1.748,1.7483,1.7483,1.7484,1.7489,1.7489,1.7491,1.7489,1.7487,1.7486,1.7482,1.7483,1.7481,1.7483,1.7475,1.7482,1.7479,1.748,1.7479,1.7478,1.7473,1.7473,1.7472,1.7472,0,1.7465,1.7467,1.7468,1.7469,1.747,1.7471,1.7472,1.7471,1.7477,1.7476,1.7474,1.7473,1.747,1.7467,1.7464,1.7465,1.7468,1.7469,1.7467,1.7465,1.7462,1.7461,1.7489,1.747,1.747,1.747,1.7471,1.7471,1.7456,1.7454,1.7457,1.7457,1.7458,1.7458,1.7457,1.7459,1.7458,1.7457,1.7459,1.7455,1.7455,1.7452,1.7451,1.7446,1.7449,1.7447,1.7446,1.7445,1.7442,1.7463,1.7446,1.7446,1.7446,1.7446,1.7446,0,1.7444,1.7446,1.7445,1.7446,1.7445,1.7449,1.7449,1.7447,1.7444,1.7444,1.7442,1.7437,1.7433,1.7434,1.7429,1.7425,1.7426,1.7423,1.7423,1.7422,1.7441,1.7442,1.7422,1.7422,1.7422,1.7422,1.7422,1.7422,1.7438,1.7436,1.7437,1.7433,1.7434,1.7431,1.743,1.7429,1.7428,1.7423,1.742,1.742,1.7419,1.7413,1.7409,1.7409,1.7406,1.7402,1.7402,1.7419,1.7422,1.7424,1.7425,1.7402,1.7402,1.7383,1.7383,1.7383]}]]